Flag for U.S.A. Weather past 2 weeks in Tempe, Arizona, U.S.A.

Now
51 °F

Passing clouds.


Feels Like: 49 °F
Forecast: 41 / 65 °F
Wind: 7 mph from East

Location: Phoenix Sky Harbor International Airport

Current Time: Dec 21, 2014 at 1:55:03 AM

Latest Report: Dec 21, 2014 at 12:51 AM


Visibility: 10 mi

Pressure: 30.08 "Hg

Humidity: 74%

Dew point: 43 °F

Location of TempeLocation

Historic Weather in Tempe — Graph

°F

Tempe temperature yesterday

Maximum temperature yesterday: 65 °F (at 3:51 PM)
Minimum temperature yesterday: 46 °F (at 7:51 AM)
Average temperature yesterday: 55 °F

Past Weeks' High & Low Weather Summary

 TemperatureHumidityPressure
High78 °F (Dec 9, 2:51 PM)93% (Dec 13, 3:51 AM)30.22 "Hg (Dec 13, 3:51 AM)
Low45 °F (Dec 19, 6:51 AM)28% (Dec 8, 12:51 PM)29.87 "Hg (Dec 10, 3:51 PM)
Average60 °F63%30.03 "Hg
* Reported Dec 6 12:51 AM — Dec 21 12:51 AM, Tempe, Weather by CustomWeather, © 2014

Note: Actual official high and low records may vary slightly from our data, if they occured in-between our weather recording intervals... More about our weather records

Advertising

Tempe weather history for previous 24 hours

 ConditionsComfort  
Time TempWeatherWind HumidityBarometerVisibility
12:51 AM
Dec 21
51 °FPassing clouds.7 mph74%30.08 "Hg10 mi
11:51 PM
Dec 20
52 °FPassing clouds.6 mph69%30.08 "Hg10 mi
10:51 PM54 °FPassing clouds.5 mph67%30.08 "Hg10 mi
9:51 PM56 °FPassing clouds.No wind60%30.07 "Hg10 mi
8:51 PM57 °FPassing clouds.No wind58%30.08 "Hg10 mi
7:51 PM58 °FPassing clouds.No wind54%30.07 "Hg10 mi
6:51 PM61 °FPartly cloudy.6 mph41%30.07 "Hg10 mi
5:51 PM62 °FPartly cloudy.7 mph38%30.05 "Hg10 mi
4:51 PM64 °FBroken clouds.6 mph35%30.03 "Hg10 mi
3:51 PM65 °FBroken clouds.6 mph33%30.03 "Hg10 mi
2:51 PM64 °FBroken clouds.No wind34%30.03 "Hg10 mi
1:51 PM63 °FScattered clouds.No wind37%30.06 "Hg10 mi
12:51 PM62 °FScattered clouds.3 mph38%30.08 "Hg10 mi
11:51 AM61 °FScattered clouds.No wind38%30.11 "Hg10 mi
10:51 AM58 °FScattered clouds.No wind47%30.14 "Hg10 mi
9:51 AM54 °FScattered clouds.6 mph57%30.13 "Hg10 mi
8:51 AM49 °FScattered clouds.8 mph71%30.12 "Hg10 mi
7:51 AM46 °FScattered clouds.No wind79%30.14 "Hg10 mi
6:51 AM48 °FPassing clouds.5 mph74%30.11 "Hg10 mi
5:51 AM47 °FPassing clouds.5 mph77%30.08 "Hg10 mi
4:51 AM48 °FPassing clouds.7 mph77%30.08 "Hg10 mi
3:51 AM49 °FPassing clouds.No wind74%30.11 "Hg10 mi
2:51 AM50 °FPassing clouds.3 mph71%30.11 "Hg10 mi
1:51 AM51 °FPassing clouds.5 mph69%30.09 "Hg10 mi
Weather by CustomWeather, © 2014

See weather overviewHow to use our weather pages